Flag for U.S.A. Weather past 2 weeks in Costa Mesa, California, U.S.A.

Now
71 °F

Broken clouds.


Feels Like: 72 °F
Forecast: 66 / 77 °F
Wind: No wind

Location: John Wayne Airport-Orange County Airport

Current Time: Jul 2, 2015 at 9:55:53 AM

Latest Report: Jul 2, 2015 at 8:53 AM


Visibility: 10 mi

Pressure: 29.99 "Hg

Humidity: 78%

Dew point: 64 °F

Location of Costa MesaLocation

Historic Weather in Costa Mesa — Graph

°F

Costa Mesa temperature yesterday

Maximum temperature yesterday: 81 °F (at 11:53 AM)
Minimum temperature yesterday: 69 °F (at 4:53 AM)
Average temperature yesterday: 73 °F

Past Weeks' High & Low Weather Summary

 TemperatureHumidityPressure
High86 °F (Jun 30, 7:53 PM)97% (Jun 19, 2:53 AM)30.02 "Hg (Jun 19, 2:53 AM)
Low61 °F (Jun 19, 1:53 AM)36% (Jun 30, 7:53 PM)29.78 "Hg (Jun 30, 7:53 PM)
Average70 °F74%29.90 "Hg
* Reported Jun 17 8:53 AM — Jul 2 8:53 AM, Costa Mesa, Weather by CustomWeather, © 2015

Note: Actual official high and low records may vary slightly from our data, if they occured in-between our weather recording intervals... More about our weather records

Advertising

Costa Mesa weather history for previous 24 hours

 ConditionsComfort  
Time TempWeatherWind HumidityBarometerVisibility
8:53 AM
Thu, Jul 2
71 °FBroken clouds.No wind78%29.99 "Hg10 mi
7:53 AM70 °FPartly sunny.3 mph81%29.98 "Hg10 mi
6:53 AM69 °FPartly sunny.6 mph84%29.96 "Hg10 mi
5:53 AM69 °FPassing clouds.5 mph84%29.95 "Hg10 mi
4:53 AM69 °FClear.No wind84%29.94 "Hg10 mi
3:53 AM69 °FClear.3 mph84%29.93 "Hg10 mi
2:53 AM70 °FPassing clouds.No wind81%29.93 "Hg10 mi
1:53 AM69 °FPassing clouds.No wind84%29.94 "Hg10 mi
12:53 AM69 °FClear.No wind84%29.95 "Hg10 mi
11:53 PM
Wed, Jul 1
69 °FClear.6 mph84%29.94 "Hg10 mi
10:53 PM69 °FOvercast.No wind84%29.94 "Hg9 mi
9:53 PM69 °FPassing clouds.3 mph84%29.94 "Hg9 mi
8:53 PM71 °FPartly sunny.3 mph78%29.92 "Hg9 mi
7:53 PM71 °FBroken clouds.6 mph81%29.91 "Hg9 mi
6:53 PM71 °FPartly sunny.10 mph81%29.90 "Hg10 mi
5:53 PM75 °FSunny.12 mph66%29.88 "Hg10 mi
4:53 PM76 °FBroken clouds.8 mph62%29.88 "Hg10 mi
3:53 PM77 °FPartly sunny.10 mph62%29.88 "Hg10 mi
2:53 PM77 °FPartly sunny.7 mph64%29.89 "Hg9 mi
1:53 PM75 °FPartly sunny.10 mph69%29.90 "Hg10 mi
12:53 PM75 °FPartly sunny.9 mph69%29.89 "Hg9 mi
11:53 AM81 °FMostly cloudy.6 mph58%29.90 "Hg10 mi
10:53 AM78 °FPartly sunny.3 mph64%29.91 "Hg10 mi
9:53 AM75 °FCloudy.7 mph74%29.91 "Hg10 mi
Weather by CustomWeather, © 2015

See weather overviewHow to use our weather pages